Bonaire, Netherlands

8:20 AM AST on July 23, 2017 (GMT -0400)
Flamingo

Weather History for TNCB - April, 2014

Change the Weather History Date:

Sunday, April 13, 2014

  Actual Average Record
Temperature  
Mean Temperature 82 °F -  
Max Temperature 87 °F 85 °F 89 °F (1998)
Min Temperature 78 °F 79 °F 71 °F (2011)
Cooling Degree Days 18    
Growing Degree Days 32 (Base 50)    
Moisture  
Dew Point 70 °F    
Average Humidity 70    
Maximum Humidity 78    
Minimum Humidity 58    
Precipitation  
Precipitation 0.00 in - - ()
Sea Level Pressure  
Sea Level Pressure 29.89 in    
Wind  
Wind Speed 15 mph ()    
Max Wind Speed 21 mph    
Max Gust Speed -    
Visibility 6.2 miles    
Events      
Averages and records for this station are not official NWS values.
T = Trace of Precipitation, MM = Missing Value Source: Averaged Metar Reports

Daily Weather History Graph

Daily Weather History Graph

Search for Another Location

Airport or City:

Trip Planner

Search our weather history database for the weather conditions in past years. The results will help you decide how hot, cold, wet, or windy it might be!

Date:

Astronomy

Apr. 13, 2014 Rise Set
Actual Time 6:22 AM AST 6:45 PM AST
Civil Twilight 6:00 AM AST 7:06 PM AST
Nautical Twilight 5:35 AM AST 7:31 PM AST
Astronomical Twilight 5:10 AM AST 7:56 PM AST
Moon 5:31 PM AST (4/13) 5:01 AM AST (4/13)
Length of Visible Light 13h 05m
Length of Day
12h 22m
Waxing Gibbous, 97% of the Moon is Illuminated
Apr 13
Waxing Gibbous
Apr 15
Full
Apr 22
Last Quarter
Apr 29
New
May 6
First Quarter

Hourly Weather History & Observations

Time (AST) Temp. Heat Index Dew Point Humidity Pressure Visibility Wind Dir Wind Speed Gust Speed Precip Events Conditions
12:00 AM 78.8 °F - 69.8 °F 74% 29.92 in - ENE 17.3 mph - N/A   Unknown
1:00 AM 78.8 °F - 69.8 °F 74% 29.89 in - ENE 15.0 mph - N/A   Unknown
2:00 AM 78.8 °F - 69.8 °F 74% 29.89 in - ENE 16.1 mph - N/A   Unknown
3:00 AM 78.8 °F - 69.8 °F 74% 29.86 in - ENE 12.7 mph - N/A   Unknown
4:00 AM 78.8 °F - 69.8 °F 74% 29.86 in - ENE 16.1 mph - N/A   Unknown
5:00 AM 78.8 °F - 69.8 °F 74% 29.89 in - ENE 13.8 mph - N/A   Unknown
6:00 AM 78.8 °F - 69.8 °F 74% 29.89 in - ENE 18.4 mph - N/A   Unknown
7:00 AM 78.8 °F - 69.8 °F 74% 29.92 in - ENE 17.3 mph - N/A   Unknown
8:00 AM 80.6 °F 83.9 °F 69.8 °F 70% 29.92 in 6.2 mi ENE 19.6 mph - N/A   Scattered Clouds
9:00 AM 82.4 °F 87.2 °F 71.6 °F 70% 29.95 in 6.2 mi East 19.6 mph - N/A   Scattered Clouds
10:00 AM 84.2 °F 89.6 °F 71.6 °F 66% 29.95 in - ENE 20.7 mph - N/A   Unknown
11:00 AM 84.2 °F 88.4 °F 69.8 °F 62% 29.95 in 6.2 mi East 19.6 mph - N/A   Scattered Clouds
12:00 PM 86.0 °F 90.4 °F 69.8 °F 58% 29.92 in - East 18.4 mph - N/A   Unknown
1:00 PM 87.8 °F 93.8 °F 71.6 °F 58% 29.92 in - East 18.4 mph - N/A   Unknown
2:00 PM 84.2 °F 89.6 °F 71.6 °F 66% 29.89 in - East 19.6 mph - N/A   Unknown
3:00 PM 84.2 °F 89.6 °F 71.6 °F 66% 29.86 in 6.2 mi East 19.6 mph - N/A   Scattered Clouds
4:00 PM 82.4 °F 87.2 °F 71.6 °F 70% 29.83 in 6.2 mi East 17.3 mph - N/A   Scattered Clouds
5:00 PM 82.4 °F 86.3 °F 69.8 °F 66% 29.83 in 6.2 mi ENE 19.6 mph - N/A   Scattered Clouds
6:00 PM 82.4 °F 87.2 °F 71.6 °F 70% 29.83 in 6.2 mi ENE 18.4 mph - N/A   Scattered Clouds
7:00 PM 80.6 °F 83.9 °F 69.8 °F 70% 29.86 in 6.2 mi ENE 18.4 mph - N/A   Partly Cloudy
8:00 PM 78.8 °F - 69.8 °F 74% 29.86 in 6.2 mi ENE 13.8 mph - N/A   Partly Cloudy
9:00 PM 78.8 °F - 71.6 °F 78% 29.86 in - ENE 16.1 mph - N/A   Unknown